Location: Ferintosh
(52.7647°N, 112.9692°W)
Time: 15:21:19
(UTC+00:00)

Transit 2A Rocket - Pass Details

Date: 25 May 2024
Orbit: 583 x 910 km, 66.7° (Epoch: 22 June)

Event Time Altitude Azimuth Distance (km) Brightness Sun altitude
Rises 18:13:35 0° 319° (NW) 3,374 8.0 55.2°
Reaches altitude 10° 18:16:00 10° 322° (NW) 2,479 7.4 55.4°
Maximum altitude 18:21:48 70° 47° (NE) 945 6.4 55.8°
Drops below altitude 10° 18:27:51 10° 131° (SE) 2,589 8.4 56.3°
Sets 18:30:24 0° 133° (SE) 3,533 8.9 56.4°
